sat.trackr.live / text

‹ back to catalog

STARLINK-31285

NORAD 59244 · 2024-049P

PAYLOAD ACTIVE UNKNOWN

§ Identity

Operator
Country
US
Launch date
2024-03-16
Launch site
AFETR
Launch vehicle
Mass (kg)
RCS (m²)

Purposes: comms

External: N2YO · Heavens-Above · Gunter

§ Orbital elements

Epoch: 2026-05-25T03:41:51.266976Z

Period
94.27 min
Inclination
43.0013°
Eccentricity
0.0001136
Mean motion
15.27593864 rev/d
Perigee alt
482.2 km
Apogee alt
483.8 km
Semi-major
6,861.1 km
B*
-7.9826e-5
RAAN
71.4192°
Arg perigee
248.6088°
Mean anomaly
111.4643°
Rev number
12,409

§ Raw data

STARLINK-312851 59244U 24049P   26145.15406559 -.00002459  00000+0 -79826-4 0  99932 59244  43.0013  71.4192 0001136 248.6088 111.4643 15.27593864124094

JSON: /api/v1/satellites/59244 · /tle

For live sub-satellite position, see the globe view (requires WebGL).

§ Visibility from observer

Set your observer location to see the next 7 days of passes ≥ 10°. The values pass through the URL so the page stays shareable.

No JS? Fill the form by hand. The geolocation button needs JavaScript.